Regional Weather Roundup
Issued by NWS

Home | Current Version | Previous Version | Text Only | Print | Product List | Glossary Off
Versions: 1 2 3 4 5 6 7 8 9 10 11 12 13 14 15 16 17 18 19 20 21 22 23 24 25 26 27 28 29 30 31 32 33 34 35 36 37 38 39 40 41 42 43 44 45 46 47 48 49 50

938
ASUS43 KLSX 271257
RWRMO

WEATHER SUMMARY FOR MISSOURI
NATIONAL WEATHER SERVICE SPRINGFIELD MO
800 AM CDT MON MAR 27 2017

NOTE: "FAIR" INDICATES FEW OR NO CLOUDS BELOW 12,000 FEET WITH NO
       SIGNIFICANT WEATHER AND/OR OBSTRUCTIONS TO VISIBILITY.
       CURRENT SKY AND/OR WEATHER CONDITIONS ARE NOT AVAILABLE FOR
       CHILLICOTHE AND FARMINGTON.

MOZ001>031-035>038-043-044-053-054-271400-
...NORTHERN AND WESTERN MISSOURI...

CITY           SKY/WX    TMP DP  RH WIND       PRES   REMARKS
KANSAS CTY INT LGT RAIN  46  45  96 N10       29.89R FOG
LEE`S SUMMIT   LGT RAIN  46  46 100 N12       29.86R FOG
ST JOSEPH      LGT RAIN  46  46 100 N9        29.91R FOG
CHILLICOTHE      N/A     47  46  97 N7        29.90R

$$
MOZ066>068-077>081-088>096-101>105-271400-
...SOUTHWEST MISSOURI...

CITY           SKY/WX    TMP DP  RH WIND       PRES   REMARKS
SPRINGFIELD    LGT RAIN  55  54  96 S12       29.78R
JOPLIN         CLOUDY    53  53 100 NW9       29.83R
BRANSON        LGT RAIN  54  54 100 E6        29.82R FOG

$$
MOZ032>034-039>042-045>050-055>058-069>072-271400-
...CENTRAL MISSOURI...

CITY           SKY/WX    TMP DP  RH WIND       PRES   REMARKS
COLUMBIA       NOT AVBL
JEFFERSON CITY LGT RAIN  54  50  86 E8        29.83R FOG
ROLLA          CLOUDY    53  53 100 SE10      29.81S
SEDALIA        LGT RAIN  50  49  96 E7        29.84R FOG
WARRENSBURG    DRIZZLE   46  45  93 N8        29.84R

$$
MOZ051-052-059>065-271400-
...EAST CENTRAL MISSOURI...

CITY           SKY/WX    TMP DP  RH WIND       PRES   REMARKS
ST LOUIS INTL  LGT RAIN  53  50  89 NE6       29.87F FOG

$$
MOZ072>076-082>087-097>100-106>115-271400-
...SOUTH CENTRAL AND SOUTHEAST MISSOURI...

CITY           SKY/WX    TMP DP  RH WIND       PRES   REMARKS
CAPE GIRARDEAU CLOUDY    56  52  86 SE10      29.83F
POPLAR BLUFF   CLOUDY    56  56 100 S7        29.84R
WEST PLAINS    RAIN      55  54  96 CALM      29.87R FOG

$$



USA.gov is the U.S. government's official web portal to all federal, state and local government web resources and services.